Regional Weather Roundup
Issued by NWS

Home | Current Version | Previous Version | Text Only | Print | Product List | Glossary Off
Versions: 1 2 3 4 5 6 7 8 9 10 11 12 13 14 15 16 17 18 19 20 21 22 23 24 25 26 27 28 29 30 31 32 33 34 35 36 37 38 39 40 41 42 43 44 45 46 47 48 49 50

000
ASUS43 KLMK 032102
RWRKY
KENTUCKY REGIONAL WEATHER ROUNDUP
NATIONAL WEATHER SERVICE LOUISVILLE KY
500 PM EDT THU SEP 03 2015

NOTE "FAIR" INDICATES FEW OR NO CLOUDS BELOW 12,000 FEET
WITH NO SIGNIFICANT WEATHER AND/OR OBSTRUCTIONS TO VISIBILITY.

KYZ001>023-026-027-061>063-070>075-032200-
WESTERN AND SOUTH CENTRAL KENTUCKY

CITY           SKY/WX    TMP DP  RH WIND       PRES   REMARKS
PADUCAH        PTSUNNY   92  66  42 S3        29.94F HX  94
HENDERSON      SUNNY     90  68  48 NE6       29.94F HX  93
OWENSBORO      MOSUNNY   92  68  45 VRB5      29.95F HX  96
HOPKINSVILLE   SUNNY     92  66  42 VRB1      29.94F HX  94
BOWLING GREEN  MOSUNNY   90  64  42 NE3       29.95F HX  91
GLASGOW        SUNNY     91  61  36 N3        29.96F HX  91
$$

KYZ024-025-028>034-038-045-046-053-032200-
NORTH CENTRAL KENTUCKY

CITY           SKY/WX    TMP DP  RH WIND       PRES   REMARKS
LOUISVILLE/SDF MOSUNNY   93  64  38 W9        29.94F HX  94
LOUISVILLE/LOU MOSUNNY   91  64  40 S5        29.96F HX  92
FORT KNOX      SUNNY     89  65  45 NW6       29.95F HX  91
$$

KYZ035>037-039>044-047>052-055>060-089>105-032200-
NORTHEAST KENTUCKY

CITY           SKY/WX    TMP DP  RH WIND       PRES   REMARKS
LEXINGTON      SUNNY     91  63  39 VRB5      29.98F HX  92
COVINGTON      MOSUNNY   89  63  41 W6        29.96F HX  90
FRANKFORT      SUNNY     90  63  40 W5        29.96F HX  91
$$

KYZ054-064>069-076>088-106>120-032200-
SOUTHEAST KENTUCKY

CITY           SKY/WX    TMP DP  RH WIND       PRES   REMARKS
JACKSON        SUNNY     86  67  52 VRB3      30.00F
LONDON         MOSUNNY   85  64  49 SE3       29.99F
SOMERSET       NOT AVBL
MIDDLESBORO    SUNNY     88  66  48 N3        29.98F HX  90
MONTICELLO     CLEAR     92  67  43 CALM      30.01F HX  95
$$



USA.gov is the U.S. government's official web portal to all federal, state and local government web resources and services.